Location: ???????
(55.2669°N, 37.7679°E)
Time: 13:14:30
(UTC+00:00)

Daily predictions for brighter satellites

Satellite Brightness Start Highest point End
(mag) Time Altitude Azimuth Time Altitude Azimuth Time Altitude Azimuth
SL-16 R/B 2.3 18:09:35 10° NNW 18:15:18 79° NE 18:20:59 10° SE
Cosmos 1302 Rocket 4.0 18:10:41 10° SSW 18:15:49 69° ESE 18:21:00 10° NNE
ISS -3.1 18:13:18 10° SW 18:16:24 36° SSE 18:19:31 10° E
CZ-4C R/B 2.0 18:12:26 10° SW 18:16:54 89° NW 18:22:50 10° NE
Cosmos 2016 Rocket 4.1 18:10:50 10° S 18:17:05 89° E 18:23:18 10° NNE
EP 1 4.3 18:15:20 10° NW 18:17:59 71° NE 18:20:37 10° ESE
Cosmos 724 4.3 18:12:53 10° SW 18:18:52 76° SE 18:24:47 10° NE
NOSS 3 (A) 4.2 18:18:04 10° NW 18:20:04 57° NE 18:22:35 10° ESE
SL-08 R/B 3.4 18:17:36 10° NNE 18:22:30 83° ESE 18:27:16 10° SSW
CZ-4B R/B 2.6 18:20:27 10° SSE 18:23:47 60° ENE 18:27:14 10° N
NOSS 3-3 (C) 4.1 18:24:29 10° SSW 18:29:32 45° SE 18:35:34 10° NE
COSMOS 2406 3.6 18:24:41 10° S 18:30:03 42° ESE 18:35:26 10° NE
Cosmos 1980 Rocket 4.0 18:27:08 10° NW 18:31:47 26° WSW 18:36:24 10° SSW
USA 306 1.9 18:29:23 10° SW 18:32:12 37° SSE 18:34:07 10° E
Meteor 1-20 Rocket 4.3 18:26:37 10° NNW 18:32:13 81° ENE 18:37:53 10° SSE
Terra 3.5 18:31:26 10° SSW 18:35:34 31° W 18:39:46 10° NNW
Helios 1A Rocket 4.0 18:33:53 10° N 18:36:49 35° WNW 18:39:42 10° SW
YAOGAN 11 4.1 18:32:30 10° NNE 18:36:56 79° ESE 18:41:24 10° SSW
Cosmos 1602 Rocket 3.7 18:33:24 10° N 18:37:41 61° ENE 18:41:57 10° SSE
NOSS 3-4 (A) 3.8 18:33:22 10° NW 18:39:49 87° SW 18:47:24 10° SE
NOSS 3-4 (C) 3.8 18:33:59 10° NW 18:40:27 88° SW 18:48:03 10° SE
Cosmos 2333 Rocket 2.3 18:34:44 10° NW 18:40:28 82° WSW 18:46:04 11° SSE
CZ-4 R/B 4.0 18:41:00 10° WSW 18:42:35 12° W 18:44:09 10° WNW
USA 245 4.4 18:38:04 10° SSE 18:43:58 81° WSW 18:49:31 10° NNW
Cosmos 2061 Rocket 4.1 18:40:56 10° S 18:47:11 87° WNW 18:53:32 10° N
Cosmos 1933 3.4 18:44:50 10° S 18:48:31 52° E 18:52:15 10° NNE
Cosmos 1464 Rocket 4.5 18:44:29 10° SSE 18:50:12 43° E 18:56:00 10° NNE
Cosmos 44 Rocket 4.1 18:45:20 10° WSW 18:50:25 60° NW 18:55:36 10° NE
ATLAS 2AS CENTAUR R/B 3.8 18:44:42 10° W 18:51:22 49° NNW 18:57:57 10° NE
Cosmos 1626 Rocket 4.1 18:50:02 10° NNW 18:54:19 55° W 18:58:35 10° S
Cosmos 1607 4.0 18:51:59 10° SW 18:58:12 86° NW 19:04:33 10° NE
SPOT 3 Rocket 3.8 18:53:22 10° S 18:58:28 66° WSW 19:03:36 10° NNW
Cosmos 2360 Rocket 2.2 18:52:50 10° NNW 18:58:34 86° ENE 19:03:37 13° SE
Cosmos 1782 4.4 18:56:22 10° SW 18:59:34 32° WNW 19:02:47 10° N
Cosmos 1805 2.8 18:56:22 10° N 18:59:38 72° ENE 19:02:14 15° SSE
Ariane Rocket 3.1 18:57:03 10° S 19:02:07 76° WSW 19:07:13 10° NNW
Cosmos 1076 Rocket 4.1 18:58:36 10° N 19:02:43 44° ENE 19:06:00 15° SE
Cosmos 2098 Rocket 3.4 18:58:41 11° SSE 19:03:09 49° E 19:07:08 10° NNE
Cosmos 2333 4.3 18:57:45 10° NNW 19:03:31 81° ENE 19:08:32 14° SE
Meteor 1-25 Rocket 4.3 18:58:25 10° NNW 19:04:08 80° WSW 19:09:34 11° S
BREEZE-M DEB (TANK) 2.4 19:03:08 10° SW 19:05:13 20° S 19:05:37 19° SSE
Cosmos 220 Rocket 4.2 19:04:19 10° S 19:08:11 46° ESE 19:12:07 10° NE
Cosmos 1536 4.2 19:06:51 10° N 19:09:52 23° ENE 19:12:23 12° ESE
Cosmos 2219 Rocket 2.3 19:07:03 10° NNW 19:12:44 74° NE 19:17:33 15° SE
Helios 1A 4.2 19:10:19 10° NE 19:13:29 23° E 19:15:28 16° SE
Cosmos 1606 Rocket 3.9 19:12:20 14° SSE 19:15:47 48° E 19:19:57 10° NNE
Cosmos 2151 3.9 19:13:07 10° NNW 19:17:02 43° W 19:20:55 10° SSW
Cosmos 1763 Rocket 4.4 19:15:44 15° SSE 19:19:23 32° ESE 19:24:02 10° NE
Helios 1B rocket 3.2 19:18:06 15° ESE 19:20:28 31° ENE 19:23:37 10° N
Okean 1 3.6 19:18:41 18° SSE 19:20:57 40° E 19:24:21 10° NNE
Okean O Rocket 3.7 19:17:51 10° SW 19:21:11 22° W 19:24:33 10° NW
Cosmos 990 Rocket 4.0 19:18:39 10° NNW 19:23:50 77° ENE 19:27:52 17° SE
Cosmos 1726 Rocket 3.9 19:22:24 18° SSE 19:25:06 42° E 19:28:57 10° NNE
Cosmos 2034 Rocket 4.3 19:22:29 14° SSE 19:27:46 53° E 19:33:54 10° NNE
TSX-5 4.4 19:26:19 10° NNW 19:29:13 36° NE 19:31:39 14° ESE
Cosmos 2322 Rocket 2.5 19:23:56 10° NW 19:29:31 60° WSW 19:33:58 16° SSE
Okean 1-7 Rocket 3.8 19:25:30 10° NNW 19:29:57 72° W 19:33:33 16° S
Cosmos 1461 2.5 19:26:44 10° SSW 19:30:23 63° SE 19:34:01 10° NE
RESURS DK-1 3.6 19:26:49 10° NNW 19:30:29 34° NE 19:34:01 11° ESE
Cosmos 1470 4.3 19:29:32 10° NNE 19:31:58 19° ENE 19:33:54 12° ESE
CZ-2C R/B 3.3 19:30:01 14° SSW 19:31:59 33° W 19:34:33 10° NNW
CZ-4B R/B 4.3 19:28:01 10° S 19:32:31 41° W 19:37:07 10° NNW
Cosmos 1777 Rocket 4.4 19:29:51 10° NNW 19:34:59 56° WSW 19:39:00 16° S
Cosmos 2082 Rocket 3.2 19:30:49 10° WSW 19:36:22 50° NW 19:41:56 10° NNE
GRACE-FO 1 4.4 19:37:11 19° S 19:39:33 89° W 19:43:04 10° N
GRACE-FO 2 4.4 19:37:39 19° S 19:40:01 88° W 19:43:33 10° N
Cosmos 1437 Rocket 3.6 19:37:10 10° SW 19:40:36 44° WNW 19:44:04 10° N
Cosmos 1975 4.5 19:37:56 10° NNE 19:40:48 21° ENE 19:43:04 13° ESE
Cosmos 1503 Rocket 4.2 19:36:50 10° NNW 19:41:58 62° WSW 19:45:44 18° S
Cosmos 909 Rocket 4.3 19:36:20 10° SW 19:42:37 75° NW 19:49:25 10° NE
Nadezhda 4 Rocket 4.2 19:36:33 10° NNW 19:42:38 69° W 19:47:52 14° S
Cosmos 2237 Rocket 3.6 19:42:19 10° NNW 19:47:28 33° NE 19:52:36 10° ESE
NOSS 3-3 (A) 4.1 19:43:24 10° WSW 19:48:53 73° NNW 19:55:40 10° NE
Cosmos 44 3.5 19:45:14 10° NW 19:50:42 84° SW 19:54:37 19° SE
Cosmos 1634 Rocket 4.4 19:48:18 19° SSE 19:52:32 47° E 19:58:27 10° NNE
ISS -3.4 19:49:40 10° WSW 19:52:52 43° S 19:54:30 24° SE
Cosmos 1354 Rocket 4.1 19:50:21 10° NNW 19:55:35 68° WSW 19:59:07 21° S
COSMOS 2428 3.1 19:50:35 10° NNW 19:56:15 60° NE 20:00:53 15° SE
Cosmos-2242 3.2 19:54:02 23° SSE 19:56:21 50° E 20:00:21 10° NNE
SL-16 R/B 3.8 19:54:19 10° NW 19:58:50 25° WSW 20:03:18 10° SSW
USA 306 2.7 19:56:54 10° W 19:58:04 22° WSW 19:58:04 22° WSW
CZ-2C R/B 4.3 19:56:25 10° ESE 20:00:37 25° NE 20:04:45 10° N
KORONAS-FOTON 4.4 19:59:46 25° SE 20:00:58 33° E 20:04:04 10° NNE
USA 290 2.0 20:01:14 23° SSW 20:03:04 78° ESE 20:06:13 10° NNE
Cosmos 1825 Rocket 4.5 20:00:31 10° NNW 20:04:36 41° W 20:07:46 16° SSW
Cosmos 1707 2.1 20:04:33 36° SSE 20:05:24 53° E 20:08:11 10° NNE
Cosmos 2026 Rocket 4.1 19:59:14 10° NNW 20:05:38 79° W 20:10:23 19° S
CZ-4C R/B 3.6 20:00:57 10° W 20:05:45 42° NNW 20:11:59 10° ENE
Cosmos 372 Rocket 4.0 20:02:12 10° NNW 20:07:22 80° ENE 20:10:44 22° SSE
Cosmos 1953 Rocket 3.9 20:05:40 10° NNW 20:09:58 58° W 20:12:42 21° S
COSMOS 2406 4.1 20:08:42 10° WSW 20:14:18 51° NW 20:19:55 10° NNE
Aureole 1 Rocket 3.9 20:10:49 10° NNW 20:16:17 74° WSW 20:20:45 21° SSE
Meteor 1-14 Rocket 4.4 20:12:16 10° N 20:17:49 65° ENE 20:21:27 22° SSE
NOSS 3-3 (C) 4.4 20:14:39 10° WSW 20:20:15 63° NNW 20:27:07 10° NE
Cosmos 1271 Rocket 3.4 20:19:21 27° SE 20:20:21 33° E 20:23:26 10° NNE
Cosmos 2221 3.6 20:18:37 22° SE 20:20:24 30° E 20:24:06 10° NNE
Cosmos 540 Rocket 3.4 20:18:42 17° SSW 20:22:44 80° ESE 20:27:54 10° NNE
Cosmos 2058 Rocket 3.0 20:20:44 24° S 20:23:16 78° E 20:27:36 10° NNE
Cosmos 2333 Rocket 4.1 20:20:05 10° WNW 20:23:56 19° W 20:27:48 10° SW
Cosmos 1937 Rocket 3.7 20:20:01 10° NNW 20:25:11 66° ENE 20:28:40 20° SE
Cosmos 1766 3.5 20:24:54 10° NNW 20:27:59 42° W 20:29:18 27° SSW
Geosat 3.9 20:25:07 10° NE 20:30:09 86° ESE 20:34:37 13° SSW
Spot 4 3.8 20:28:46 25° SSE 20:31:35 86° ENE 20:36:24 10° NNW
BREEZE-M R/B 4.3 20:26:09 10° W 20:33:34 53° SSW 20:39:10 10° ESE
Cosmos 468 Rocket 4.1 20:30:46 23° S 20:34:00 61° ESE 20:39:11 10° NNE
Cosmos 1842 2.8 20:33:12 38° SSE 20:34:07 57° E 20:37:14 10° NNE
Cosmos 1833 4.2 20:29:39 12° SSW 20:34:53 87° ESE 20:40:33 10° NE
ARIANE 5 R/B 2.6 20:34:30 27° SSE 20:36:55 86° WSW 20:41:25 10° NNW
CZ-2C R/B 4.4 20:31:57 10° NNE 20:37:02 31° E 20:40:12 19° SE
Cosmos 2297 Rocket 3.7 20:35:27 17° SE 20:37:40 21° ESE 20:41:45 10° NE
ALOS 2 2.6 20:35:46 27° SSE 20:38:09 83° ENE 20:42:34 10° NNW
Meteor 2-6 Rocket 4.4 20:35:52 23° S 20:39:45 71° E 20:45:41 10° NNE
USA 234 4.0 20:35:58 10° ENE 20:41:44 32° SE 20:44:47 22° S
Cosmos 2360 Rocket 3.8 20:37:36 10° NW 20:41:53 23° WSW 20:45:21 13° SW
Cosmos 2322 3.7 20:36:13 10° NW 20:41:55 72° WSW 20:45:23 24° SSE
ATLAS 2AS CENTAUR R/B 3.9 20:37:03 10° WNW 20:43:32 43° N 20:49:58 10° E
Cosmos 1536 3.5 20:41:46 10° NNW 20:45:14 40° W 20:46:54 24° SSW
Helios 1A 3.6 20:44:35 10° N 20:48:23 47° WNW 20:51:10 17° SW
Helios 1B rocket 3.4 20:52:03 21° SW 20:53:28 28° W 20:56:33 10° NW
PSLV R/B 3.8 20:51:07 10° NNE 20:55:19 55° E 20:57:18 29° SSE
Cosmos 2219 Rocket 3.5 20:51:32 10° NW 20:56:11 27° WSW 20:59:14 17° SSW
Cosmos 1898 Rocket 3.6 20:51:40 10° NNW 20:56:47 61° WSW 20:59:35 26° S
SeaSat 1 3.1 20:55:07 11° ESE 20:59:38 52° NE 21:04:24 10° NNW
Meteor 1-19 Rocket 4.4 20:57:24 25° S 21:00:50 65° E 21:06:45 10° NNE
Cosmos 1763 Rocket 4.1 20:55:41 10° SW 21:00:53 55° NW 21:06:05 10° NNE
Cosmos 1766 Rocket 4.4 20:56:55 10° N 21:01:02 41° ENE 21:03:33 20° SE
Cosmos 1470 3.1 21:02:56 10° NNW 21:06:05 40° W 21:07:06 31° SW
Cosmos 1461 4.5 21:03:35 10° W 21:06:54 31° NNW 21:10:13 10° NE
RESURS DK-1 2.8 21:04:09 10° NW 21:07:56 43° WSW 21:09:14 31° SSW
Cosmos 2322 Rocket 4.4 21:09:58 10° WNW 21:12:24 13° W 21:14:51 10° WSW
NOSS 0 Rocket 4.0 21:06:19 10° NW 21:12:25 64° WSW 21:16:09 24° SSE
NOSS 8 (H) 4.0 21:11:26 10° NW 21:14:17 61° SW 21:14:47 50° S
BREEZE-M DEB (TANK) 3.9 21:08:47 10° W 21:15:14 40° SSW 21:20:00 10° ESE
Cosmos 1975 3.2 21:12:27 10° NNW 21:16:00 45° W 21:17:20 30° SSW
Intercosmos 24 3.8 21:14:07 10° N 21:18:20 75° ENE 21:19:54 32° SSE
MetOp-A 3.8 21:16:05 27° S 21:18:45 81° WSW 21:23:27 10° NNW
SL-16 R/B 3.4 21:13:43 10° NNW 21:19:08 42° NE 21:24:31 10° ESE
Lacrosse 4 Rocket 3.0 21:25:45 18° SE 21:26:33 19° ESE 21:29:29 10° ENE
ISS -1.6 21:26:30 10° W 21:27:25 15° WSW 21:27:25 15° WSW
SAR-Lupe-2 4.4 21:29:02 28° SW 21:29:54 33° W 21:32:59 10° NNW
CZ-2C R/B 4.4 21:26:56 10° N 21:31:13 48° WNW 21:34:12 19° SW
Cosmos 2237 Rocket 2.2 21:26:21 10° NW 21:32:03 75° WSW 21:35:41 23° SSE
Cosmos 841 Rocket 3.4 21:29:04 25° SSW 21:32:14 86° ESE 21:37:31 10° NNE
Cosmos 2279 Rocket 4.4 21:29:54 19° SSW 21:34:27 58° WNW 21:40:39 10° N
Meteor 1-11 Rocket 4.0 21:30:09 10° NNW 21:35:44 58° W 21:38:54 25° SSW
Cosmos 1812 Rocket 3.6 21:33:38 28° SSW 21:35:54 74° WNW 21:40:21 10° N
Cosmos 1980 3.7 21:30:27 10° NW 21:36:05 67° WSW 21:39:29 24° SSE
NOSS 8 (E) 4.2 21:34:44 10° WNW 21:37:36 53° SW 21:38:00 48° S
Meteor 2-20 Rocket 4.5 21:36:40 24° S 21:40:06 63° E 21:45:45 10° NNE
COSMOS 2428 3.6 21:35:09 10° NW 21:40:14 34° WSW 21:42:50 23° SSW
CZ-2C R/B 2.6 21:37:19 26° S 21:40:24 76° WSW 21:45:37 10° NNW
ACS3 Solar Sail 2.7 21:35:32 10° NNE 21:41:02 36° E 21:45:00 17° SSE
CZ-4C R/B 4.3 21:38:03 10° NE 21:41:02 28° E 21:42:10 23° SE
Meteor 2-4 Rocket 3.9 21:41:22 25° SSE 21:44:29 58° E 21:49:56 10° NNE
Meteor 1-10 Rocket 4.4 21:40:49 24° SSW 21:44:36 80° WNW 21:50:36 10° NNE
Cosmos 2227 Rocket 3.4 21:44:30 19° SSE 21:47:25 29° ESE 21:52:13 10° NE
Meteor 2-20 4.4 21:45:33 24° SSW 21:49:26 86° WNW 21:55:34 10° NNE
Okean 3 Rocket 4.3 21:46:09 10° N 21:50:34 51° ENE 21:53:39 19° SE
NOSS 8 (F) 4.4 21:50:06 10° WNW 21:52:53 43° SW 21:53:03 43° SW
Cosmos 1271 Rocket 4.2 21:52:42 15° WSW 21:54:38 24° WNW 21:57:27 10° N
CZ-4C R/B 3.8 21:49:44 10° WNW 21:55:11 43° NNE 22:02:14 10° E
Cosmos 192 4.3 21:51:19 10° NNW 21:56:17 81° WSW 21:59:23 23° SSE
Cosmos 2221 3.5 21:54:54 19° SW 21:57:21 36° WNW 22:01:17 10° N
GP-B 3.7 21:55:07 10° N 21:59:17 45° W 22:01:32 24° SW
Cosmos 2263 Rocket 3.7 21:56:11 15° SE 21:59:19 24° ESE 22:03:39 10° NE
Meteor 1-27 Rocket 3.8 21:56:56 24° SSW 22:00:34 87° WNW 22:06:21 10° NNE
Cosmos 1842 Rocket 3.9 22:01:31 26° SSE 22:03:47 57° E 22:08:08 10° NNE
Cosmos 1238 Rocket 2.8 22:02:31 31° SSW 22:04:22 85° W 22:08:46 10° N
Cosmos 1805 Rocket 4.2 22:06:18 10° N 22:10:33 49° ENE 22:13:48 16° SE
Sich 1 2.9 22:09:44 10° N 22:13:55 84° ENE 22:16:18 25° SSE
Iridium 4 Rocket 3.8 22:11:57 23° S 22:15:38 85° E 22:21:30 10° N
Landsat 5 3.3 22:12:54 10° NNE 22:17:04 88° WNW 22:19:05 29° SSW
CZ-2C R/B 3.6 22:11:29 10° N 22:17:07 62° WNW 22:21:10 20° SW
Cosmos 2297 Rocket 2.2 22:17:12 22° SSW 22:20:59 89° SE 22:26:41 10° NE
Cosmos 1655 Rocket 4.2 22:16:35 10° NNW 22:22:40 57° W 22:26:42 22° SSW
Cosmos 1758 3.1 22:19:36 10° N 22:23:14 78° E 22:25:10 26° SSE
USA 234 3.2 22:18:55 10° ENE 22:25:29 72° SSE 22:32:01 10° WSW
Alouette 2 Rocket 4.4 22:30:20 10° NW 22:33:41 33° W 22:35:30 23° SW
Cosmos 1408 Rocket 3.5 22:30:54 10° N 22:35:13 82° ENE 22:38:11 20° SSE
ATLAS 2AS CENTAUR R/B 3.0 22:28:33 10° NW 22:35:22 72° NE 22:42:09 10° ESE
Cosmos 1340 Rocket 2.9 22:32:44 10° N 22:36:35 71° ENE 22:39:16 19° SSE
SeaSat 1 3.1 22:34:43 23° SSW 22:37:09 38° WSW 22:41:43 10° NW
Meteor 2-10 Rocket 4.0 22:32:07 10° NNW 22:37:26 52° W 22:40:59 21° SSW
Iridium 45 4.4 22:37:58 28° S 22:39:44 82° E 22:43:10 10° N
SL-14 R/B 3.2 22:38:08 26° S 22:40:10 78° E 22:43:59 10° NNE
Cosmos 1125 Rocket 3.5 22:38:39 10° NNW 22:43:58 79° WSW 22:48:47 13° SSE
BlueWalker 3 2.7 22:43:33 26° S 22:44:15 28° SSE 22:47:21 10° E
Cosmos 1066 Rocket 4.2 22:40:54 22° SSW 22:44:31 74° WNW 22:50:05 10° NNE
Meteor 1-18 Rocket 4.2 22:49:51 21° SSW 22:53:46 79° WNW 22:59:29 10° NNE
DELTA 2 DEB (DPAF) 3.8 22:50:28 10° N 22:53:59 58° WNW 22:55:55 24° SW
Cosmos 2084 3.3 22:50:34 10° WNW 22:54:39 58° SW 22:58:41 10° SE
Cosmos 1814 Rocket 4.1 22:59:05 19° SW 23:02:48 75° WNW 23:08:05 10° NNE
Cosmos 1953 2.9 22:59:33 10° N 23:03:08 49° ENE 23:06:41 10° SSE
SL-16 R/B 2.4 22:57:53 10° NW 23:03:28 55° WSW 23:08:40 12° S
Lacrosse 4 Rocket 1.4 23:01:08 20° SW 23:03:52 74° NW 23:07:59 10° NE
BREEZE-M DEB (TANK) 3.8 23:07:01 22° S 23:07:11 22° S 23:11:10 10° SE
CZ-2D R/B 4.4 23:04:31 10° NE 23:08:16 19° E 23:12:01 10° SE
IDEFIX/ARIANE 42P 3.1 23:03:11 10° NNE 23:08:20 55° E 23:12:47 14° S
Cosmos 2219 4.0 23:04:46 14° S 23:09:07 41° ESE 23:14:23 10° NE
NPP 4.4 23:08:17 10° NNE 23:13:31 49° E 23:18:30 11° S
CZ-4C R/B 4.3 23:10:52 10° N 23:13:48 29° WNW 23:15:55 16° WSW
Cosmos 2237 Rocket 3.9 23:11:42 10° WNW 23:15:10 17° W 23:17:27 13° SW
H-2A R/B 4.4 23:12:21 10° NE 23:16:05 19° E 23:19:48 10° SE
Cosmos 1633 Rocket 3.6 23:13:21 10° N 23:17:38 57° ENE 23:21:53 10° SSE
Cosmos 1151 Rocket 3.0 23:15:33 19° SSW 23:18:32 72° WNW 23:22:52 10° N
Cosmos 1500 Rocket 4.1 23:15:34 10° NNW 23:19:48 44° W 23:22:48 18° SSW
S3M 4.1 23:14:46 13° S 23:20:20 74° E 23:26:29 10° NNE
CZ-2C R/B 4.5 23:18:46 11° WSW 23:21:30 15° W 23:24:28 10° NW
PSLV R/B 4.0 23:17:53 10° N 23:21:43 58° WNW 23:24:24 18° SW
ACS3 Solar Sail 2.1 23:17:49 10° N 23:23:37 54° WNW 23:28:30 15° SW
Meteor 1-22 Rocket 4.2 23:19:02 10° NNW 23:24:56 80° WSW 23:30:32 10° S
CENTAUR R/B 4.1 23:20:54 10° SSE 23:25:17 23° ESE 23:30:29 10° ENE
In-Cosmos 22 4.5 23:23:38 16° SSW 23:27:57 58° WNW 23:33:35 10° N
Cosmos 2315 Rocket 4.3 23:22:19 11° S 23:28:31 69° E 23:34:49 10° NNE
Cosmos 2227 Rocket 2.4 23:26:17 15° SW 23:31:03 70° NW 23:36:45 10° NNE
H-2A R/B 4.0 23:31:23 10° SE 23:34:33 31° ENE 23:37:49 10° N
Envisat 4.4 23:31:18 10° NNE 23:35:55 34° E 23:40:30 10° SSE
Cosmos 2263 Rocket 2.2 23:37:50 14° SW 23:42:38 82° NW 23:48:15 10° NNE
BREEZE-M DEB (TANK) 3.2 23:35:42 10° WSW 23:43:52 42° S 23:47:05 10° ESE
MSX 3.9 23:38:19 10° NNE 23:44:08 87° WNW 23:49:33 12° SSW
CZ-4C R/B 3.0 23:37:54 10° NW 23:44:14 78° NE 23:52:26 10° ESE
Cosmos 1709 Rocket 4.1 23:39:04 10° NNW 23:45:08 61° W 23:51:15 10° S
SL-16 R/B 4.4 23:42:18 10° ESE 23:47:48 34° NE 23:53:17 10° N
Cosmos 1666 Rocket 3.6 23:44:44 10° NNW 23:49:10 66° W 23:53:33 10° S
Cosmos 1943 3.2 23:43:40 10° NW 23:49:13 60° WSW 23:54:42 10° SSE
Meteor 1-15 Rocket 4.4 23:45:07 10° NNW 23:51:02 73° W 23:56:55 10° S
Cosmos 1867 3.5 23:45:51 10° NW 23:51:19 71° SW 23:56:44 10° SE
Cosmos 1743 Rocket 4.4 23:48:59 10° NNW 23:52:51 33° W 23:56:12 13° SSW
NOSS 7 (H) 4.4 23:51:55 10° WNW 23:54:45 42° SW 23:57:39 10° SSE
